SL-24 R/B, 40541

Orbit data source: Space-Track

SL-24 R/B, 40541 is space debris in SSO originally from a launch on Wed, 25 Mar 2015 UTC launched from the Orenburg, Russia (OREN). Debris objects in space refer to the collection of defunct objects orbiting the Earth. Examples of debris include non-operational satellites, rocket bodies, and fragments generated from explosions, collisions, or faulty payload assembly.

Loading next visibility...
Identifier
40541, 2015-014C
Orbit
SSO
Country
Flag of CISCIS
Related business
Manufacturer
Yuzhnoe
Mission
Spacecraft
Bus & Motor
15A18-BR, Unknown motor
Mass
~1,000 kg wet, ~1,000 kg dry
Launch date (UTC)
2015-03-25 (11 years ago)
Launch vehicle
Unknown
Launch site
Orenburg, Russia (OREN)
Object type
Payload
Rocket body
Debris
Shape & HBR
Cyl, 1.5 m
Radar Cross Section
10.603 m², Large (>1 m²)

Expand to show TLE details & history
Last TLE update: 21 hours ago

TLE from 21 hours ago
0 SL-24 R/B
1 40541U 15014C   26199.42777339  .00000310  00000-0  83360-4 0  9992
2 40541  97.3454   6.7750 0610525 159.2811 203.4298 13.77839566568090
Epoch: 2026-07-18T10:15Z
TLE epoch observation values (Epoch: 2026-07-18T10:15:59.620Z)
Latitude
-0.00005°
Longitude
-83.46408°
Altitude
1,390.27 km
Speed
6.959 km/s
True Right ascension
00h 27m 06s
True Declination
0° 00' 00"
Sunlit
Object was in daylight at epoch
Visualization orbit readout
Latitude
Unknown
Longitude
Unknown
Altitude
Unknown
Speed
Unknown
Apparent Right ascension
Unknown
Apparent Declination
Unknown
Sunlit
N/A
Visualization observer readout
Local Sidereal Time
19:51:57
Azimuth
Unknown
Elevation
Unknown
Doppler factor
Unknown
Orbital elements
Apogee altitude
1,417.242 km
Perigee altitude
520.157 km
Semi-major axis
7,346.837 km
Eccentricity
0.06105
Inclination
97.3454°
RAAN
6.775°
Arg. of periapsis
159.2811°
True anomaly
200.83133°
Mean anomaly
203.4298°
Eccentric anomaly
202.11301°
Mean motion
3.44661 °/min
Orbital period
104.45 mins
BSTAR
0.00008336
Loading maneuver chart data...
Computing Atmospheric mass density...
Loading historical data...
Loading historical data...
Loading historical data...
Loading historical data...
Loading historical data...
Loading historical data...
Loading historical data...
Other satellites on launch #14 in the year 2015 (2015-03-25 UTC)

Documentation

Showing up to 5 results
|